Theta_e
313 313 313 313 313 314 314 315 315 315 315 315 315 314 314 314 314 309 298 306 308 313 312 302 300 299 298 295 297 296 284 282 284 285 287 291 289 293 293 292 292 295 294 296 299
313 313 313 313 313 314 314 314 314 315 315 314 313 313 313 313 306 299 307 312 312 313 303 298 295 296 293 293 293 289 283 284 289 289 287 289 289 289 289 289 290 291 295 297 297
313 312 312 313 313 314 314 314 314 314 313 312 313 312 312 310 301 297 311 311 312 311 303 300 298 295 291 293 291 290 284 289 289 290 290 288 288 290 288 286 289 288 291 294 294
312 312 312 312 313 313 313 314 313 312 312 313 312 311 310 307 288 301 309 309 308 305 301 297 295 290 289 287 292 285 288 289 290 291 289 287 289 287 288 288 292 292 293 293 293
312 312 312 312 312 313 313 312 312 311 312 311 310 310 306 297 294 305 311 305 303 300 296 294 291 290 286 288 288 286 287 290 290 289 289 290 287 286 287 290 292 293 294 293 293
312 311 311 312 312 312 312 311 310 311 311 309 310 309 302 291 304 304 301 301 299 297 295 294 292 293 289 287 286 289 288 288 289 288 289 287 287 288 289 292 292 293 292 293 293
312 311 311 311 312 311 311 310 309 310 310 310 311 307 298 292 302 301 300 299 299 297 293 296 296 292 291 286 291 289 284 286 287 288 287 289 284 285 290 292 290 290 291 292 294
311 311 311 311 311 311 309 308 307 309 307 311 310 304 293 302 301 299 300 297 299 300 298 299 298 293 290 291 288 285 284 279 287 288 289 287 278 287 291 290 289 290 290 292 293
311 311 311 311 311 310 308 307 306 307 309 310 306 301 291 302 295 298 299 294 297 298 300 298 297 291 290 284 281 284 277 278 280 287 287 286 281 288 291 290 289 289 290 291 292
312 311 310 310 310 309 307 305 304 307 304 301 299 296 295 291 295 297 298 297 294 294 294 292 290 285 286 281 272 276 276 278 277 283 285 283 282 287 290 290 287 286 287 288 289
311 310 310 310 309 308 305 303 298 299 297 291 291 291 292 295 298 295 296 295 295 293 283 289 283 279 281 283 283 281 278 276 279 283 281 281 282 284 288 286 283 283 284 284 286
310 310 310 310 307 306 305 297 295 296 291 294 293 294 294 294 289 292 296 289 288 283 286 285 279 283 285 284 282 281 277 275 279 282 280 278 278 282 285 281 281 281 281 282 284
310 310 309 309 306 303 297 296 301 300 292 289 292 291 291 293 288 289 292 289 286 283 282 280 282 285 283 281 279 278 276 276 274 278 279 277 276 279 281 280 280 280 280 281 281
310 309 309 307 301 299 295 299 302 302 289 287 288 290 292 293 287 294 294 289 286 281 282 282 285 283 281 279 280 272 279 277 276 274 270 278 269 273 276 275 276 277 277 277 279
310 309 308 305 300 296 296 300 302 298 280 287 288 295 293 287 288 289 295 291 282 282 282 281 281 280 276 279 281 274 279 277 276 274 273 275 271 271 274 271 272 274 275 276 282
310 308 306 304 303 298 301 301 299 287 275 282 288 286 285 287 287 290 290 291 289 284 285 283 287 283 281 282 282 280 276 278 280 276 269 275 274 267 268 269 270 273 273 276 282
310 307 302 302 297 300 301 296 286 277 287 279 280 284 283 282 284 285 284 281 277 272 274 280 281 284 284 277 280 276 272 267 267 269 268 276 270 267 270 271 271 271 272 276 280
308 304 302 299 300 300 297 291 279 278 278 284 283 283 280 281 282 283 281 278 281 279 275 271 269 278 282 277 272 274 269 262 260 265 268 275 265 268 272 273 273 273 274 276 277
304 303 301 300 299 298 292 282 281 281 281 280 283 280 280 281 281 282 280 278 280 280 270 272 271 282 281 281 277 272 267 274 268 271 267 269 271 276 273 270 271 271 273 273 276
301 300 299 298 298 294 288 283 278 282 283 282 278 278 275 277 278 279 279 282 280 283 283 275 269 281 282 280 278 275 276 267 267 257 260 268 264 262 265 265 267 268 270 272 275
299 292 296 297 295 292 285 282 280 284 285 280 278 278 278 276 278 277 279 282 283 282 283 281 274 275 278 269 268 270 268 271 271 267 262 261 261 267 265 266 266 268 271 272 273
297 286 296 295 287 285 283 280 285 282 285 284 282 280 277 276 275 278 278 281 284 284 277 281 273 272 268 275 279 275 269 268 262 261 263 263 262 268 266 267 267 268 270 272 274
291 294 297 295 284 283 280 281 282 281 282 282 281 282 279 274 271 277 279 284 284 282 277 278 276 268 269 274 277 270 272 271 270 270 265 263 265 270 268 267 267 267 269 270 272
292 285 288 291 290 285 281 281 278 283 282 283 283 283 276 271 277 272 278 283 284 283 284 282 276 268 265 267 272 266 268 271 270 263 261 264 264 266 265 264 265 266 268 269 270
293 285 285 285 284 284 285 281 279 277 281 282 280 279 277 270 270 269 278 281 283 285 281 278 270 268 269 269 272 270 263 267 265 266 264 263 265 266 264 264 265 266 267 268 269
288 286 284 284 284 284 284 280 281 280 280 278 275 280 277 273 276 272 278 279 278 281 280 279 272 269 267 270 267 268 269 268 267 264 267 267 266 269 268 266 265 265 266 266 268
290 289 292 284 284 284 285 282 281 282 281 282 281 279 274 277 281 282 282 282 280 274 278 275 270 267 269 270 271 267 266 262 263 264 265 262 267 269 266 264 264 265 266 266 267
Wind_Speed
13 14 16 16 16 17 17 18 18 17 15 16 15 14 11 13 15 5 9 5 9 13 17 14 12 12 13 8 5 5 5 10 16 15 14 9 12 4 2 4 4 7 10 11 19
13 14 15 17 17 18 18 19 18 17 17 16 14 10 8 11 6 8 3 7 10 11 13 14 13 13 7 9 3 6 6 8 7 9 8 8 11 11 9 7 9 10 11 11 10
12 14 15 16 18 19 20 18 17 17 17 15 11 6 7 8 5 5 8 12 13 11 11 12 10 10 7 9 6 6 13 15 15 15 15 14 10 10 13 15 10 10 10 10 8
12 14 16 17 17 19 20 18 17 19 15 10 5 6 7 6 2 5 11 13 13 11 9 8 8 9 8 10 10 12 14 14 14 14 14 13 15 13 14 16 13 14 13 13 13
12 14 16 17 18 20 20 18 19 16 9 5 4 5 6 3 6 5 11 12 10 8 8 9 9 9 8 11 15 17 16 14 12 14 14 14 14 15 19 15 15 14 17 15 13
12 14 16 18 19 21 19 19 18 9 5 4 4 6 5 2 5 8 9 7 9 9 11 12 8 9 11 12 11 12 15 15 15 16 16 18 19 14 15 17 17 16 15 13 13
12 14 16 18 19 21 18 20 9 5 5 5 5 5 1 5 4 9 11 9 9 11 11 9 9 6 6 10 9 11 17 16 18 18 10 11 12 14 18 18 17 11 9 10 9
11 14 16 18 19 21 18 15 8 5 5 4 6 7 4 2 6 9 12 13 12 6 3 4 5 8 9 8 11 16 14 12 9 2 7 3 13 16 13 9 11 11 10 13 12
11 13 15 18 19 20 18 10 8 4 4 5 5 2 4 3 14 8 11 16 9 4 1 3 3 5 5 7 8 4 11 17 16 15 15 7 13 12 12 14 13 9 11 12 11
10 13 15 18 20 17 18 7 5 8 7 4 4 2 3 9 10 9 17 18 2 7 4 6 2 5 2 6 8 15 14 12 19 16 20 19 17 15 14 10 10 13 14 16 17
11 13 15 17 19 16 11 3 2 2 7 5 3 3 6 11 5 13 17 11 7 2 7 2 3 7 11 9 12 15 16 20 18 17 13 12 12 8 13 6 12 14 15 16 18
11 13 15 17 13 15 7 4 3 2 2 2 1 4 2 7 6 15 17 9 8 9 12 1 6 10 12 13 15 15 21 20 15 11 12 12 17 15 8 17 16 17 18 19 19
10 12 15 16 8 4 6 4 3 2 2 3 2 2 4 6 6 13 13 9 8 9 10 2 7 12 14 14 17 17 18 14 19 21 18 12 5 11 11 15 17 18 19 19 20
9 11 14 20 2 1 3 4 2 4 2 3 0 3 4 3 2 11 9 3 6 6 7 6 8 14 13 14 19 18 15 20 20 9 5 8 3 16 14 17 21 22 22 23 25
8 10 12 8 5 2 4 2 2 3 2 4 2 2 1 8 7 12 6 3 5 8 1 4 10 12 9 16 22 8 24 19 18 8 1 1 2 6 13 20 25 23 25 26 26
7 9 12 1 2 2 2 2 3 3 2 3 2 6 7 9 4 9 4 11 2 5 5 6 7 3 7 18 12 26 17 10 2 3 0 10 1 8 11 16 22 22 26 27 26
5 7 6 4 2 1 1 3 5 6 3 7 4 6 6 6 5 9 8 12 9 9 8 12 5 6 10 16 6 20 17 5 4 3 4 6 10 6 14 14 15 21 23 23 23
5 6 2 2 2 2 2 1 7 0 3 2 3 7 3 6 5 12 6 6 10 7 4 7 8 6 6 6 11 10 6 3 5 5 5 8 5 5 16 11 13 14 16 21 28
4 2 2 3 2 2 0 6 5 3 2 4 3 2 2 2 4 7 5 6 6 7 5 6 5 8 8 5 16 10 6 8 4 5 3 3 6 4 23 15 18 21 25 27 25
2 2 2 3 2 2 4 3 3 3 1 1 4 2 3 6 6 7 7 4 6 9 3 3 7 5 3 7 9 5 6 4 4 6 7 4 4 5 24 25 24 24 23 23 22
1 2 2 2 2 2 3 3 3 2 1 1 3 2 2 4 4 4 6 1 7 8 5 1 2 7 7 7 8 9 6 5 2 2 2 4 2 3 10 14 17 17 19 19 19
1 1 2 2 4 2 3 5 1 4 3 2 2 0 1 2 4 3 4 4 9 7 5 3 2 5 4 5 5 10 7 4 3 6 2 4 2 2 6 11 13 15 16 17 16
2 2 2 1 3 2 0 1 0 4 4 4 3 3 2 2 1 2 4 4 6 7 4 5 3 5 5 3 4 5 10 9 5 2 4 4 3 7 12 12 12 13 14 14 15
0 1 3 3 1 6 5 3 3 1 2 2 3 4 2 1 2 4 4 1 3 4 2 2 1 4 6 8 1 4 7 12 5 3 7 1 11 14 14 13 14 13 13 12 14
1 3 1 2 2 3 3 7 5 4 2 3 2 5 5 2 2 4 4 4 3 5 2 2 2 1 5 3 2 2 1 6 5 4 2 8 11 9 8 8 10 11 12 13 15
4 4 1 1 1 5 2 5 7 4 7 3 4 4 5 5 5 6 1 1 2 6 5 1 2 3 5 5 4 6 4 1 4 5 4 2 3 11 6 6 11 10 12 15 13
1 1 1 1 2 3 4 5 6 8 1 3 6 5 2 7 3 3 3 2 2 1 3 4 3 4 4 4 4 5 2 2 0 1 3 5 5 7 10 11 12 12 12 12 13
Wind_Direction
356 357 352 347 346 342 341 339 338 333 329 329 330 326 329 325 308 243 50 357 341 347 325 327 331 341 316 265 234 280 253 244 251 256 272 312 317 152 99 235 248 285 288 300 303
354 354 349 344 342 340 340 337 335 330 327 328 327 323 322 315 271 68 41 345 335 342 325 335 330 327 311 276 254 220 239 248 265 293 316 302 314 320 319 274 257 254 264 282 285
349 351 343 341 341 340 337 336 333 327 327 328 324 328 312 306 244 62 15 349 333 325 314 303 308 315 299 289 267 240 251 288 313 327 331 322 311 313 304 278 276 269 280 281 315
347 346 340 337 341 338 337 335 332 327 327 327 337 322 309 253 17 50 9 332 317 287 294 316 322 312 293 297 296 282 283 289 299 316 319 305 312 297 287 285 298 301 294 290 289
344 342 340 335 341 339 338 337 332 330 333 355 341 316 291 201 52 23 352 336 304 338 312 316 305 304 279 315 314 282 276 285 310 314 307 301 285 279 275 278 275 277 274 275 277
343 336 337 338 340 339 338 333 331 334 350 351 336 323 257 112 317 353 343 317 325 309 317 301 290 304 285 272 267 303 302 298 292 285 283 278 276 268 273 282 277 273 275 275 267
336 335 337 339 337 337 337 336 337 338 338 347 328 294 60 75 348 6 337 326 320 317 297 307 299 274 310 306 295 304 288 285 275 264 248 276 287 270 268 268 257 270 269 267 262
331 335 337 337 336 336 337 337 331 307 315 322 314 288 60 130 344 9 355 334 328 323 333 315 302 273 267 281 290 271 264 276 303 180 271 321 288 282 288 349 334 320 312 302 299
330 334 335 337 336 332 335 329 314 315 294 281 265 282 86 153 355 332 6 327 325 256 0 265 285 267 304 274 298 17 323 311 307 317 320 301 295 273 302 307 290 285 282 274 270
332 332 336 338 336 330 328 293 306 284 229 238 254 240 109 352 334 315 349 329 301 288 203 228 248 267 215 335 312 311 304 300 301 312 297 291 286 269 274 356 14 9 359 355 349
329 332 336 338 338 325 332 227 253 168 42 57 30 313 349 341 268 11 347 327 317 217 353 316 297 1 331 321 299 293 307 306 304 302 2 326 322 311 26 32 27 10 355 346 336
326 333 334 339 340 322 319 35 54 306 138 93 10 265 27 317 328 12 353 22 348 11 340 58 31 351 317 295 313 321 312 305 302 336 319 305 305 300 351 23 10 7 356 339 329
323 331 333 335 336 317 66 30 328 257 261 119 70 335 327 317 19 8 2 342 342 355 348 347 334 330 335 334 326 319 301 315 312 317 287 250 13 53 36 23 11 9 351 339 325
320 331 336 328 310 38 68 357 276 280 93 348 134 38 303 140 172 1 12 22 16 337 344 290 328 346 340 317 340 314 337 309 301 319 296 39 138 34 13 4 6 359 346 336 324
317 331 335 347 306 29 342 338 253 248 341 349 45 328 315 62 312 344 28 336 2 323 15 316 319 332 320 336 331 308 313 300 289 259 258 124 132 10 20 358 353 348 340 335 328
316 331 335 201 223 57 332 240 243 57 318 54 65 12 1 37 18 335 356 14 85 292 277 281 276 351 352 332 320 334 313 296 200 124 277 41 152 34 14 355 340 342 340 337 339
314 330 318 293 19 57 205 236 40 81 330 337 337 350 320 349 335 348 346 42 32 354 10 316 77 14 11 333 360 345 352 355 19 27 43 14 63 63 16 6 346 338 332 338 346
325 321 193 23 80 173 205 256 68 263 277 61 348 313 39 5 343 331 353 4 47 11 295 353 343 27 341 47 329 346 37 56 345 346 322 39 23 121 38 7 351 343 342 349 3
325 203 226 117 171 193 247 54 172 212 286 4 334 335 0 24 357 329 76 5 30 51 43 346 292 347 47 21 17 322 29 289 274 211 266 84 25 208 354 355 358 358 2 3 358
306 296 131 107 162 208 74 129 120 52 172 56 58 57 319 336 8 359 9 36 354 35 106 352 295 314 96 8 25 10 337 5 328 17 338 73 89 282 342 340 351 358 1 355 357
257 326 94 125 175 55 111 128 139 119 209 90 113 283 263 331 328 330 334 88 17 3 318 75 178 301 39 32 25 3 17 322 236 95 256 308 259 27 333 344 347 348 354 355 357
293 313 139 181 54 43 97 142 237 142 230 129 120 222 235 69 289 298 316 340 16 357 328 80 283 287 213 200 75 87 350 330 50 319 240 209 279 79 24 2 344 358 354 354 4
192 241 197 239 151 118 240 62 142 156 175 171 147 132 54 204 354 267 315 49 20 26 11 325 334 315 336 274 100 36 357 340 285 276 294 324 36 37 27 1 358 359 359 358 5
95 321 332 42 245 135 148 167 144 353 126 122 98 124 131 238 209 291 291 318 71 18 344 245 303 145 186 220 207 24 341 353 357 60 316 350 294 354 2 2 349 357 1 7 12
90 241 200 191 282 124 113 148 141 172 276 172 192 199 189 175 185 237 249 290 141 346 128 52 246 129 276 237 225 131 344 12 11 343 58 309 315 10 2 1 3 345 4 16 23
149 152 217 119 248 124 174 217 162 157 151 205 177 176 172 194 203 195 127 21 12 331 349 49 289 127 270 240 162 313 76 73 39 342 306 299 300 360 11 29 33 7 15 13 22
114 59 162 168 130 127 210 177 191 141 180 113 173 145 201 243 257 233 282 278 234 124 324 323 338 9 290 180 146 6 310 94 335 268 288 24 305 355 353 22 25 11 14 20 16